Location: Bernay
(48.6766°N, 2.9386°E)
Time: 06:56:31
(UTC+00:00)

Cosmos 2056 Rocket - Pass Details

Date: 12 January 2026
Orbit: 738 x 795 km, 74.0° (Epoch: 17 February)

Event Time Altitude Azimuth Distance (km) Brightness Sun altitude
Rises 18:04:49 0° 212° (SSW) 3,194 7.4 -17.3°
Reaches altitude 10° 18:07:12 10° 216° (SW) 2,266 6.6 -17.7°
Maximum altitude 18:12:16 60° 296° (WNW) 851 3.9 -18.5°
Enters shadow 18:16:58 12° 16° (NNE) 2,126 5.5 -19.3°
